Content
SEND FEEDBACK

Daily
Averages
Monthly
Summary
United States of America

GLORIETA, NEW MEXICO


Home > North America > United States > New Mexico
Elevation: 7091 feet     Latitude: 35 35N     Longitude: 105 41W

WEATHER
 
SELECT A DAY
Number of Records: 174,996;   Date Range: 1/1/95 - 10/19/14
 
SHARE

PRINT THIS DATA

[ ← Previous Day ]
WEATHER ALMANAC - JANUARY 31, 2013
[ Next Day → ]
[ °C ]   °F
Weather ElementAverageHighLow
Temperature34.3 °F46.9 °F (2:53 pm)21.9 °F (4:53 am)
Dewpoint18.5 °F21.9 °F (8:53 am)17.1 °F (2:53 am)
Humidity55.7 %82 % (4:53 am)30 % (2:53 pm)
Barometer30.21 in30.27 in (7:53 am)30.14 in (1:53 pm)
Wind Speed8.8 mph15 mph (1:53 pm)
Wind Gust20.7 mph (9:53 am)
Weather ElementAverage
Visibility10 mi
Wind DirectionWSW (242.7 °)

Weather ElementTotal
Precipitation---
Heating Degree Days30.6 (Base 65)
Averaged from 22 records on January 31, 2013
WEATHER CONDITIONS BREAKOUT
WIND DIRECTION BREAKOUT
WEATHER BY HOUR - JANUARY 31, 2013
[ °C ]   °F
Local TimeTemperatureDewpointHumidityBarometerVisibilityWind DirectionWind SpeedGust SpeedPrecipitationEventsConditions
1:53 AM25.0 °F18.0 °F75 %30.16 in10.0 miNorth (360°)8.1 mphClear
2:53 AM24.1 °F17.1 °F75 %30.15 in10.0 miNNW (340°)8.1 mphClear
3:53 AM24.1 °F17.1 °F75 %30.17 in10.0 miNNW (330°)6.9 mphClear
4:53 AM21.9 °F17.1 °F82 %30.19 in10.0 miNNW (330°)6.9 mphClear
5:53 AM21.9 °F17.1 °F82 %30.23 in10.0 miNNW (330°)4.6 mphClear
6:53 AM21.9 °F17.1 °F82 %30.25 in10.0 miNNW (330°)3.5 mphClear
7:53 AM27.0 °F19.9 °F75 %30.27 in10.0 miNorth (10°)8.1 mphClear
8:53 AM33.1 °F21.9 °F64 %30.25 in10.0 miNNW (340°)12.7 mphClear
9:53 AM37.0 °F21.0 °F52 %30.25 in10.0 miNorth (350°)13.8 mph20.7 mphClear
10:53 AM39.9 °F19.9 °F45 %30.26 in10.0 miNorth (350°)12.7 mphClear
11:53 AM42.1 °F19.0 °F40 %30.20 in10.0 miNorth (10°)12.7 mphClear
12:53 PM45.0 °F19.0 °F36 %30.16 in10.0 miNorth (360°)12.7 mphClear
1:53 PM46.0 °F18.0 °F33 %30.14 in10.0 miNorth (10°)15.0 mph19.6 mphClear
2:53 PM46.9 °F17.1 °F30 %30.17 in10.0 miNorth (10°)8.1 mphClear
3:53 PM46.0 °F18.0 °F33 %30.19 in10.0 miWSW (250°)10.4 mph16.1 mphClear
4:53 PM45.0 °F18.0 °F34 %30.20 in10.0 miWest (270°)4.6 mphClear
5:53 PM39.9 °F17.1 °F40 %30.22 in10.0 miSW (220°)5.8 mphClear
6:53 PM37.0 °F18.0 °F46 %30.25 in10.0 miCalmClear
7:53 PM33.1 °F19.0 °F56 %30.25 in10.0 miEast (80°)5.8 mphClear
9:53 PM33.1 °F19.0 °F56 %30.20 in10.0 miNorth (350°)13.8 mphClear
10:53 PM32.0 °F19.0 °F59 %30.21 in10.0 miNorth (360°)9.2 mphClear
11:53 PM33.1 °F19.0 °F56 %30.19 in10.0 miNorth (350°)10.4 mphClear
Hourly data recorded from KSAF, located miles away from Glorieta, New Mexico







STORIES FROM OUR PARTNERS